Погода в Титовке

Россия / Брянская область     53°15′38″N   34°03′41″E
темп.,
°C
ветер,
м/с
пор.,
м/с
влажн.,
%
обл.,
%
осадки,
мм/ч
давл.,
гПа
погр.,
м
12 мая, ср
ср1200:00+10вюв4893100 0.0 1023274
03:00+6вюв410900 0.0 1024291
06:00+6вюв27920 0.0 1025177
09:00+11в47711 0.0 1024630
12:00+15всв455499 0.0 10221548
15:00+14в4663100 0.1 1019834
18:00+9всв3595100 2.9 1017284
21:00+8ююв4894100 4.6 1015390
13 мая, чт
чт1300:00+7вюв369479 0.8 1015148
03:00+7в399557 0.9 1014334
06:00+7в51295100 0.1 1013473
09:00+11юв6981100 0.3 10131054
12:00+13ююв796346 0.4 10131676
15:00+14ю786337 1.8 10131689
18:00+13ююз5871100 0.1 1013952
21:00+9ююв358252 0.1 101379
14 мая, пт
пт1400:00+7юв3791100 0.0 1014105
03:00+7юв4990100 0.0 1014165
06:00+9юв4987100 0.0 1013206
09:00+15вюв597028 0.0 1012436
12:00+19юв69649 0.0 10111324
15:00+20ююв686549 1.4 10091357
18:00+18ююв4880100 3.2 1008310
21:00+15ююв49916 4.4 1007173
15 мая, сб
сб1500:00+13ю379499 0.2 1007138
03:00+13ююв410945 0.2 1007203
06:00+11ююз5119416 0.0 1008383
09:00+14ююз588462 0.0 1009659
12:00+18ююз6866100 0.0 10101423
15:00+18ююз596841 0.3 10101320
18:00+17ююз597461 0.4 1010949
21:00+12ююз37915 0.4 1011137
16 мая, вс
вс1600:00+10ююз39955 0.0 1011205
03:00+9ююз379820 0.0 1012187
06:00+9ююз369719 0.0 1013180
09:00+14юз458026 0.0 1014542
12:00+18юз336413 0.0 10141185
15:00+20ююз3355100 0.0 10131611
18:00+20юз236248 0.0 1013880
21:00+15всв227722 0.0 101311